Current weather by "City, St" or "zip code"  
 

Current Conditions: Dayton, Cox Dayton International Airport, OH

Light Rain Fog/Mist


45.0 F

Last Updated on Oct 29 2020, 8:56 pm EDT
Humidity: 97%
Wind Speed: N 11.5 mph
Barometer 29.80 in
Dewpoint: 44.1 F
Visibility: 6.00 mi
Precip: 00.03 in
Heat Index: NA
Wind Chill: 39 F
Current conditions at:

Dayton, Cox Dayton International Airport, OH (KDAY)

Lat: 39.90611 Lon: 84.21861

Local Radar Image active severe weather and emergency alerts image image weather storm and storm spotter reports image weather observation monitoring service image
Local
Radar
Active
Alerts
Storm Reports Obs
Monitoring

Sign-up For Email & Text Message Weather Alert Notification Services



Advertise Here

Observation History for Dayton, Cox Dayton International Airport, OH


Time Wind
(mph)
Vis
(mi)
Weather Precip (in) Temperature (F) Relative
Humidity
Wind
Chill
(F)
Heat
Index
(F)
Pressure
Air Dwpt altimeter
(in)
sea level
(mb)
Rmks
8:56 pm EDT N 11.5 6.00 Light Rain Fog/Mist 00.03 45.0 44.1 97% 39 NA 29.80 1009.2
7:56 pm EDT N 11.5 8.00 Light Rain 00.01 46.0 44.1 93% 41 NA 29.79 1008.9
6:56 pm EDT N 13.8 3.00 Light Rain Fog/Mist 00.05 46.0 45.0 96% 40 NA 29.76 1008.0
5:56 pm EDT N 17.3 3.00 Light Rain Fog/Mist 00.02 46.0 45.0 96% 39 NA 29.73 1006.8
4:56 pm EDT N 16.1 2.00 Light Rain Fog/Mist 00.05 47.0 46.0 97% 41 NA 29.72 1006.6
3:56 pm EDT N 17.3 G 24.2 1.25 Rain Fog/Mist 00.02 47.0 46.0 97% 40 NA 29.70 1005.8
2:56 pm EDT N 13.8 4.00 Light Rain Fog/Mist Trace 48.0 46.9 96% 42 NA 29.65 1004.3
1:56 pm EDT N 17.3 7.00 Overcast Trace 47.0 46.0 97% 40 NA 29.67 1004.9
12:56 pm EDT N 13.8 7.00 Light Rain 00.02 46.0 45.0 96% 40 NA 29.70 1006.0
11:56 am EDT NE 19.6 4.00 Light Rain Fog/Mist 00.11 45.0 45.0 100% 37 NA 29.68 1005.2
10:56 am EDT N 15.0 5.00 Rain Fog/Mist 00.06 45.0 44.1 97% 38 NA 29.70 1006.0
9:56 am EDT N 17.3 6.00 Light Rain Fog/Mist -- 46.0 45.0 96% 39 NA 29.70 1006.0
8:56 am EDT NE 13.8 3.00 Rain Fog/Mist 00.14 47.0 46.9 100% 41 NA 29.71 1006.1
7:56 am EDT NE 15.0 6.00 Rain Fog/Mist -- 48.0 48.0 100% 42 NA 29.71 1006.0
6:56 am EDT NE 16.1 3.00 Rain Fog/Mist 00.17 49.0 48.9 100% 43 NA 29.74 1007.1
5:56 am EDT NE 13.8 1.75 Rain Fog/Mist 00.12 50.0 50.0 100% 45 NA 29.74 1007.1
4:56 am EDT NE 10.4 1.00 Rain Fog/Mist 00.09 50.0 50.0 100% 46 NA 29.77 1008.2
3:56 am EDT NE 5.8 1.00 Rain Fog/Mist 00.11 50.0 50.0 100% 48 NA 29.80 1009.2
1:56 am EDT NE 4.6 3.00 Rain Fog/Mist 00.07 50.0 50.0 100% 48 NA 29.86 1011.2
12:56 am EDT NE 5.8 5.00 Light Rain Fog/Mist 00.05 51.0 50.0 96% 49 NA 29.88 1012.1
11:56 pm EDT SE 3.5 10.00 Light Rain Trace 51.0 50.0 96% NA NA 29.93 1013.5
10:56 pm EDT N 0.0 10.00 Light Rain Trace 51.0 48.9 92% NA NA 29.95 1014.3
9:56 pm EDT SE 3.5 10.00 Overcast -- 51.0 50.0 96% NA NA 29.98 1015.2

Regional Weather Observation


Dayton, Cox Dayton International Airport, OH (KDAY)

Light Rain Fog/Mist
45.0 F

Dayton / Wright-Patterson Air Force Base, OH (KFFO)

Light Rain
45.0 F

Lima, Lima Allen County Airport, OH (KAOH)

Overcast
46.0 F

Dayton, Dayton-Wright Brothers Airport, OH (KMGY)

Light Rain
45.0 F

Hook Field Municipal Airport, OH (KMWO)

Light Rain
46.0 F

Bellefontaine Regional Airport, OH (KEDJ)

Overcast
43.0 F